"2009-05-12 00:00:00",878715,3.048,45.09,3.813,0.383,15.96,107.6482,18.86,19.86,36.75,0,111,13.15,19.68,7.1
"2009-05-12 00:00:30",878716,3.535,45.47,3.083,0.184,16,107.6482,18.86,19.86,37.46,0,111,13.16,19.68,7.5
"2009-05-12 00:01:00",878717,3.206,59.22,3.84,0.13,16.08,107.6488,18.86,19.88,37.78,0,111,13.16,19.68,21.2
"2009-05-12 00:01:30",878718,2.64,63.86,9.79,0.208,16.1,107.6485,18.86,19.88,37.95,0,111,13.16,19.68,25.9
"2009-05-12 00:02:00",878719,2.691,67.16,6.092,0.251,16.07,107.6525,18.87,19.89,37.88,0,111,13.16,19.69,29.2
"2009-05-12 00:02:30",878720,2.619,63.04,4.758,0.328,16.13,107.6579,18.88,19.9,38.02,0,111,13.16,19.70,25.0
"2009-05-12 00:03:00",878721,3.311,68.91,5.894,0.209,16.1,107.6606,18.89,19.9,37.97,0,111,13.16,19.71,30.9
"2009-05-12 00:03:30",878722,2.106,62.43,4.327,0.345,16.1,107.6691,18.91,19.9,38.06,0,111,13.16,19.73,24.4
"2009-05-12 00:04:00",878723,2.401,56.67,9.69,0.328,16.08,107.6448,18.85,19.86,38.15,0,111,13.16,19.67,18.7
"2009-05-12 00:04:30",878724,3.09,47.02,3.577,0.319,16.02,107.6371,18.83,19.84,38.64,0,111,13.16,19.65,9.0
"2009-05-12 00:05:00",878725,2.998,47.64,3.054,0.264,16.06,107.6394,18.83,19.83,38.78,0,111,13.16,19.65,9.6
"2009-05-12 00:05:30",878726,2.259,46.38,6.076,0.204,16.04,107.6405,18.84,19.81,38.6,0,111,13.16,19.66,8.4
"2009-05-12 00:06:00",878727,2.864,48.4,5.152,0.442,16.2,107.6417,18.84,19.81,38.02,0,111,13.16,19.66,10.4
"2009-05-12 00:06:30",878728,3.56,51.91,4.333,0.178,16.44,107.6417,18.84,19.83,37.64,0,111,13.16,19.66,13.9
"2009-05-12 00:07:00",878729,3.034,58,4.445,0.349,16.5,107.6421,18.84,19.82,37.21,0,111,13.16,19.66,20.0
"2009-05-12 00:07:30",878730,3.004,47.46,3.251,0.238,16.71,107.6427,18.84,19.83,37.39,0,111,13.16,19.66,9.5
"2009-05-12 00:08:00",878731,2.55,48.89,5.129,0.184,16.79,107.6439,18.85,19.84,37.73,0,111,13.16,19.66,10.9
"2009-05-12 00:08:30",878732,2.603,67.37,5.922,0.23,16.85,107.6478,18.86,19.83,36.69,0,111,13.16,19.67,29.4
"2009-05-12 00:09:00",878733,2.569,66.96,7.638,0.219,16.82,107.6502,18.86,19.85,36.51,0,111,13.16,19.68,29.0
"2009-05-12 00:09:30",878734,2.02,67.88,8.21,0.239,16.85,107.6508,18.86,19.84,36.59,0,111,13.16,19.68,29.9
"2009-05-12 00:10:00",878735,1.987,81.6,14.53,0.312,16.76,107.6508,18.86,19.84,36.06,0,111,13.16,19.68,43.6
"2009-05-12 00:10:30",878736,1.785,92,6.586,0.114,16.45,107.6472,18.85,19.84,36.25,0,111,13.16,19.67,54.0
"2009-05-12 00:11:00",878737,1.909,87.8,3.695,0.173,16.29,107.6281,18.81,19.84,36.2,0,111,13.16,19.62,49.8
"2009-05-12 00:11:30",878738,1.745,86.4,5.582,0.168,16.32,107.6182,18.78,19.84,35.79,0,111,13.16,19.60,48.4
"2009-05-12 00:12:00",878739,1.919,89.9,5.304,0.209,16.23,107.6171,18.78,19.83,35.72,0,111,13.15,19.60,51.9
"2009-05-12 00:12:30",878740,1.97,76.46,6.975,0.222,16.19,107.6171,18.78,19.83,35.41,0,111,13.15,19.60,38.5
"2009-05-12 00:13:00",878741,2.631,66.74,4.749,0.136,16.07,107.6171,18.78,19.83,35.87,0,111,13.16,19.60,28.7
"2009-05-12 00:13:30",878742,2.686,54.35,8.46,0.19,16.13,107.6171,18.78,19.82,36.45,0,111,13.15,19.60,16.3
"2009-05-12 00:14:00",878743,2.566,47.78,6.577,0.333,16.14,107.6132,18.77,19.81,37.66,0,111,13.16,19.59,9.8
"2009-05-12 00:14:30",878744,2.406,47.06,4.182,0.17,16.16,107.5952,18.72,19.8,37.52,0,111,13.16,19.54,9.1
"2009-05-12 00:15:00",878745,2.473,42.43,2.637,0.27,16.23,107.5834,18.69,19.8,37.84,0,111,13.16,19.51,4.4
"2009-05-12 00:15:30",878746,2.129,54.74,3.454,0.266,16.13,107.5834,18.69,19.78,36.95,0,111,13.16,19.51,16.7
"2009-05-12 00:16:00",878747,1.923,61.03,3.325,0.099,16.11,107.5843,18.69,19.74,36.23,0,111,13.16,19.51,23.0
"2009-05-12 00:16:30",878748,2.192,63.47,4.598,0.184,16.03,107.5867,18.7,19.74,36.18,0,111,13.16,19.52,25.5
"2009-05-12 00:17:00",878749,2.636,68.72,5.221,0.265,16.12,107.5913,18.71,19.74,36.36,0,111,13.16,19.53,30.7
"2009-05-12 00:17:30",878750,2.536,64.99,2.901,0.224,16.12,107.594,18.72,19.72,37.08,0,111,13.16,19.54,27.0
"2009-05-12 00:18:00",878751,1.584,54.02,16.49,0.244,16.15,107.6019,18.74,19.73,36.95,0,111,13.16,19.56,16.0
"2009-05-12 00:18:30",878752,2.001,24.06,7.614,0.454,16.03,107.5903,18.71,19.73,36.77,0,110.9,13.16,19.53,346.1
"2009-05-12 00:19:00",878753,2.121,24.73,8.03,0.331,16.07,107.5988,18.73,19.73,37.32,0,111,13.16,19.55,346.7
"2009-05-12 00:19:30",878754,1.527,16.9,12.18,0.569,16.24,107.6073,18.75,19.72,38.4,0,111,13.16,19.57,338.9
"2009-05-12 00:20:00",878755,1.749,21.56,4.27,0.168,15.95,107.61,18.76,19.72,38.38,0,111,13.16,19.58,343.6
"2009-05-12 00:20:30",878756,1.289,24.24,5.318,0.281,16.08,107.6106,18.76,19.73,38.08,0,110.9,13.17,19.58,346.2
"2009-05-12 00:21:00",878757,1.129,14.88,10.24,0.266,16.08,107.6109,18.76,19.73,38.04,0,110.9,13.16,19.58,336.9
"2009-05-12 00:21:30",878758,1.279,4.193,10.73,0.31,16.17,107.6196,18.78,19.76,38.11,0,110.9,13.16,19.60,326.2
"2009-05-12 00:22:00",878759,1.533,20.27,11.93,0.214,15.91,107.6376,18.83,19.76,37.99,0,110.9,13.16,19.65,342.3
"2009-05-12 00:22:30",878760,1.605,16.37,5.637,0.164,15.87,107.6449,18.85,19.77,37.83,0,110.9,13.17,19.67,338.4
"2009-05-12 00:23:00",878761,1.701,23.11,6.373,0.125,15.85,107.6471,18.85,19.8,37.9,0,110.9,13.17,19.67,345.1
"2009-05-12 00:23:30",878762,1.601,31.82,3.996,0.155,15.9,107.6501,18.86,19.83,37.92,0,111,13.17,19.68,353.8
"2009-05-12 00:24:00",878763,1.716,42.61,8.72,0.203,15.91,107.6742,18.92,19.84,37.62,0,110.9,13.17,19.74,4.6
"2009-05-12 00:24:30",878764,1.864,51.07,7.879,0.322,15.95,107.6808,18.94,19.88,37.71,0,110.9,13.17,19.76,13.1
"2009-05-12 00:25:00",878765,2.163,57.86,7,0.145,15.92,107.6841,18.95,19.89,37.97,0,110.9,13.17,19.77,19.9
"2009-05-12 00:25:30",878766,2.279,44.48,1.931,0.116,15.95,107.69,18.96,19.92,38.03,0,111,13.17,19.78,6.5
"2009-05-12 00:26:00",878767,2.147,52.03,6.805,0.12,16.12,107.7112,19.02,19.94,37.87,0,110.9,13.17,19.84,14.0
"2009-05-12 00:26:30",878768,2.51,60.46,4.182,0.208,16.15,107.7208,19.04,19.95,37.63,0,110.9,13.16,19.86,22.5
"2009-05-12 00:27:00",878769,2.579,54.33,5.552,0.25,16.24,107.7208,19.04,19.98,37.63,0,110.9,13.17,19.86,16.3
"2009-05-12 00:27:30",878770,2.493,72.17,5.272,0.254,16.53,107.7202,19.04,20,36.88,0,110.9,13.16,19.86,34.2
"2009-05-12 00:28:00",878771,2.087,68.28,2.685,0.097,16.68,107.7205,19.04,20,36.34,0,110.9,13.16,19.86,30.3
"2009-05-12 00:28:30",878772,1.691,69.51,6.348,0.233,16.71,107.7211,19.04,20.02,36.05,0,110.9,13.16,19.86,31.5
"2009-05-12 00:29:00",878773,1.683,68.21,4.258,0.142,16.53,107.7208,19.04,20.02,36.11,0,110.9,13.16,19.86,30.2
"2009-05-12 00:29:30",878774,2.286,55.05,4.476,0.239,16.46,107.722,19.05,20.04,36.13,0,110.9,13.16,19.87,17.0
"2009-05-12 00:30:00",878775,2.478,67.02,3.508,0.137,16.52,107.7208,19.04,20.04,35.94,0,110.9,13.16,19.86,29.0
"2009-05-12 00:30:30",878776,2.503,85.2,5.468,0.267,16.65,107.7208,19.04,20.06,35.99,0,110.9,13.16,19.86,47.2
"2009-05-12 00:31:00",878777,2.889,86.8,3.538,0.259,16.7,107.7208,19.04,20.06,36.19,0,110.9,13.16,19.86,48.8
"2009-05-12 00:31:30",878778,2.394,91.5,1.949,0.187,16.83,107.7208,19.04,20.06,35.88,0,110.9,13.16,19.86,53.5
"2009-05-12 00:32:00",878779,2.417,86.2,2.138,0.094,16.84,107.7208,19.04,20.05,35.81,0,110.9,13.16,19.86,48.2
"2009-05-12 00:32:30",878780,1.745,75.15,10.95,0.486,16.8,107.7169,19.03,20.06,36.09,0,110.9,13.16,19.85,37.2
"2009-05-12 00:33:00",878781,2.311,71.17,4.433,0.483,16.82,107.6972,18.98,20.04,36.49,0,110.9,13.16,19.80,33.2
"2009-05-12 00:33:30",878782,2.327,74.88,5.744,0.172,16.81,107.688,18.96,20.02,36.62,0,110.9,13.17,19.78,36.9
"2009-05-12 00:34:00",878783,1.83,66.99,5.593,0.18,16.63,107.6871,18.96,20.02,36.76,0,110.9,13.17,19.78,29.0
"2009-05-12 00:34:30",878784,1.462,71.82,9.15,0.218,16.51,107.688,18.96,20.02,37.12,0,110.9,13.17,19.78,33.8
"2009-05-12 00:35:00",878785,1.449,55.32,12.16,0.145,16.36,107.6794,18.94,20,37.08,0,110.9,13.17,19.76,17.3
"2009-05-12 00:35:30",878786,2.003,67.91,9.52,0.411,16.38,107.6604,18.89,19.99,37.04,0,110.9,13.17,19.71,29.9
"2009-05-12 00:36:00",878787,2.141,56.06,3.26,0.113,16.34,107.6561,18.88,19.97,36.78,0,110.9,13.17,19.70,18.1
"2009-05-12 00:36:30",878788,2.217,68.86,3.877,0.152,16.4,107.657,18.88,19.96,36.76,0,110.9,13.17,19.70,30.9
"2009-05-12 00:37:00",878789,2.085,73,3.229,0.235,16.34,107.6589,18.88,19.94,36.77,0,110.9,13.18,19.70,35.0
"2009-05-12 00:37:30",878790,2.096,67.07,6.489,0.277,16.25,107.6452,18.85,19.92,36.82,0,110.9,13.18,19.67,29.1
"2009-05-12 00:38:00",878791,2.061,55.27,3.988,0.259,16.21,107.6369,18.83,19.9,37.25,0,110.9,13.18,19.65,17.3
"2009-05-12 00:38:30",878792,1.532,60,5.403,0.191,16.17,107.6396,18.84,19.9,37.41,0,110.9,13.18,19.65,22.0
"2009-05-12 00:39:00",878793,1.524,58.26,6.541,0.132,16.28,107.6448,18.85,19.88,37.44,0,110.9,13.18,19.67,20.3
"2009-05-12 00:39:30",878794,1.72,64.67,3.152,0.198,16.29,107.6457,18.85,19.87,36.67,0,110.9,13.18,19.67,26.7
"2009-05-12 00:40:00",878795,1.802,65.68,2.806,0.27,16.14,107.6432,18.84,19.86,36.48,0,110.9,13.18,19.66,27.7
"2009-05-12 00:40:30",878796,1.928,73.76,6.258,0.254,16.16,107.6303,18.81,19.85,36.97,0,110.9,13.18,19.63,35.8
"2009-05-12 00:41:00",878797,2.04,67.73,3.802,0.159,16.14,107.6219,18.79,19.84,37.13,0,110.9,13.18,19.61,29.7
"2009-05-12 00:41:30",878798,1.669,60.96,5.765,0.15,16.12,107.6196,18.78,19.83,37.41,0,110.9,13.18,19.60,23.0
"2009-05-12 00:42:00",878799,1.627,66.16,8.65,0.106,16.18,107.6183,18.78,19.84,37.45,0,110.9,13.18,19.60,28.2
"2009-05-12 00:42:30",878800,1.825,73.4,3.592,0.129,16.13,107.6144,18.77,19.84,37.23,0,110.9,13.18,19.59,35.4
"2009-05-12 00:43:00",878801,1.983,66.42,1.792,0.144,16.16,107.6146,18.77,19.83,37.25,0,110.9,13.18,19.59,28.4
"2009-05-12 00:43:30",878802,2.241,77.9,6.651,0.148,16.25,107.6164,18.78,19.82,37.21,0,110.9,13.18,19.59,39.9
"2009-05-12 00:44:00",878803,2.23,82.2,2.183,0.107,16.29,107.6182,18.78,19.82,36.92,0,110.9,13.18,19.60,44.2
"2009-05-12 00:44:30",878804,2.144,78.48,3.011,0.09,16.25,107.6215,18.79,19.82,36.76,0,110.9,13.18,19.61,40.5
"2009-05-12 00:45:00",878805,2.073,73.53,3.709,0.096,16.19,107.622,18.79,19.82,36.7,0,110.9,13.17,19.61,35.5
"2009-05-12 00:45:30",878806,2.268,72.83,8.49,0.231,16.19,107.6241,18.8,19.82,37.04,0,110.9,13.17,19.61,34.8
"2009-05-12 00:46:00",878807,2.517,72.58,3.101,0.199,16.26,107.6252,18.8,19.83,37.1,0,110.9,13.17,19.62,34.6
"2009-05-12 00:46:30",878808,2.546,70.86,2.855,0.068,16.28,107.6287,18.81,19.83,37.07,0,110.9,13.17,19.62,32.9
"2009-05-12 00:47:00",878809,2.58,68.06,5.414,0.118,16.18,107.6298,18.81,19.83,36.91,0,110.9,13.17,19.63,30.1
"2009-05-12 00:47:30",878810,2.504,65.59,3.229,0.113,16.2,107.6307,18.81,19.82,37.33,0,110.9,13.17,19.63,27.6
"2009-05-12 00:48:00",878811,2.644,68.27,1.955,0.224,16.24,107.6312,18.81,19.83,37.61,0,110.9,13.17,19.63,30.3
"2009-05-12 00:48:30",878812,2.583,64.38,2.875,0.059,16.19,107.6324,18.82,19.83,37.51,0,110.9,13.17,19.63,26.4
"2009-05-12 00:49:00",878813,2.535,61.81,1.392,0.132,16.19,107.6304,18.81,19.82,37.61,0,110.9,13.17,19.63,23.8
"2009-05-12 00:49:30",878814,2.536,59.42,3.279,0.208,16.17,107.631,18.81,19.85,37.8,0,110.9,13.17,19.63,21.4
"2009-05-12 00:50:00",878815,2.406,57.79,2.199,0.105,16.17,107.6265,18.8,19.84,38.08,0,110.9,13.17,19.62,19.8
"2009-05-12 00:50:30",878816,2.531,51.33,2.073,0.067,16.24,107.6231,18.79,19.85,38.29,0,110.9,13.18,19.61,13.3
"2009-05-12 00:51:00",878817,2.654,49.23,4.16,0.104,16.19,107.6225,18.79,19.85,38.47,0,110.9,13.18,19.61,11.2
"2009-05-12 00:51:30",878818,2.66,46.85,4.555,0.146,16.25,107.6223,18.79,19.84,38.66,0,110.9,13.18,19.61,8.8
"2009-05-12 00:52:00",878819,2.747,36.99,3.527,0.264,16.13,107.6223,18.79,19.83,38.92,0,110.9,13.18,19.61,359.0
"2009-05-12 00:52:30",878820,2.447,30.53,3.043,0.158,16.12,107.6223,18.79,19.84,39.28,0,110.9,13.18,19.61,352.5
"2009-05-12 00:53:00",878821,2.867,23.87,1.634,0.229,16.03,107.6211,18.79,19.83,39.57,0,110.9,13.18,19.61,345.9
"2009-05-12 00:53:30",878822,3.134,23.94,2.089,0.185,15.99,107.6068,18.75,19.82,39.89,0,110.9,13.18,19.57,345.9
"2009-05-12 00:54:00",878823,3.122,26.12,1.9,0.212,16.04,107.5936,18.72,19.82,40.22,0,110.9,13.18,19.53,348.1
"2009-05-12 00:54:30",878824,3.205,24.71,1.419,0.226,16.08,107.5885,18.7,19.79,40.6,0,110.9,13.18,19.52,346.7
"2009-05-12 00:55:00",878825,3.144,26.85,1.898,0.173,16.15,107.5885,18.7,19.79,40.47,0,110.9,13.18,19.52,348.9
"2009-05-12 00:55:30",878826,3.358,25.71,2.535,0.291,16.16,107.5868,18.7,19.78,41.25,0,110.9,13.18,19.52,347.7
"2009-05-12 00:56:00",878827,3.386,27.24,1.728,0.3,16.23,107.5658,18.65,19.75,41.03,0,110.9,13.18,19.46,349.2
"2009-05-12 00:56:30",878828,3.277,30.11,1.385,0.191,16.25,107.5573,18.62,19.74,40.2,0,110.9,13.18,19.44,352.1
"2009-05-12 00:57:00",878829,3.145,31.88,1.604,0.207,16.3,107.5548,18.62,19.73,39.87,0,110.9,13.18,19.43,353.9
"2009-05-12 00:57:30",878830,3.087,34.75,2.187,0.141,16.44,107.554,18.62,19.71,39.53,0,110.9,13.18,19.43,356.8
"2009-05-12 00:58:00",878831,2.791,33.74,1.373,0.23,16.36,107.5329,18.56,19.67,39.38,0,110.9,13.18,19.38,355.7
"2009-05-12 00:58:30",878832,2.56,33.95,1.949,0.214,16.39,107.5226,18.54,19.67,39.39,0,110.9,13.18,19.35,356.0
"2009-05-12 00:59:00",878833,2.398,33.28,2.149,0.239,16.36,107.5217,18.53,19.64,39.43,0,110.9,13.18,19.35,355.3
"2009-05-12 00:59:30",878834,2.349,31.52,2.677,0.239,16.29,107.5199,18.53,19.63,39.73,0,110.9,13.18,19.34,353.5
"2009-05-12 01:00:00",878835,2.294,31.07,1.915,0.213,16.26,107.5085,18.5,19.61,39.93,0,110.9,13.18,19.32,353.1
"2009-05-12 01:00:30",878836,2.559,35.78,2.32,0.175,16.33,107.4928,18.46,19.61,39.81,0,110.9,13.18,19.28,357.8
"2009-05-12 01:01:00",878837,2.643,37.35,0.702,0.041,16.42,107.4958,18.47,19.59,39.57,0,110.9,13.19,19.28,359.4
"2009-05-12 01:01:30",878838,2.511,37.52,0.721,0.035,16.38,107.5,18.48,19.56,39.56,0,110.9,13.19,19.29,359.5
"2009-05-12 01:02:00",878839,2.427,40.65,2.05,0.089,16.29,107.5033,18.49,19.54,39.64,0,110.9,13.18,19.30,2.7
"2009-05-12 01:02:30",878840,2.334,39.91,1.289,0.056,16.25,107.4935,18.46,19.53,39.61,0,110.9,13.18,19.28,1.9
"2009-05-12 01:03:00",878841,2.162,42.67,2.046,0.075,16.46,107.4879,18.45,19.51,39.43,0,110.8,13.18,19.26,4.7
"2009-05-12 01:03:30",878842,2.174,42.44,1.418,0.075,16.41,107.4813,18.43,19.52,39.21,0,110.9,13.18,19.25,4.4
"2009-05-12 01:04:00",878843,2.144,43.72,1.874,0.06,16.49,107.4808,18.43,19.51,39.33,0,110.9,13.18,19.24,5.7
"2009-05-12 01:04:30",878844,2.087,45.82,2.365,0.053,16.49,107.4802,18.43,19.5,39.4,0,110.8,13.18,19.24,7.8
"2009-05-12 01:05:00",878845,2.093,50.05,1.062,0.056,16.48,107.4808,18.43,19.48,39.32,0,110.8,13.18,19.24,12.0
"2009-05-12 01:05:30",878846,2.061,48.37,1.479,0.065,16.51,107.4814,18.43,19.48,39.29,0,110.8,13.18,19.25,10.4
"2009-05-12 01:06:00",878847,2.272,49.25,2.677,0.176,16.51,107.4814,18.43,19.48,39.42,0,110.9,13.18,19.25,11.2
"2009-05-12 01:06:30",878848,2.465,47.28,2.084,0.109,16.44,107.4814,18.43,19.48,39.86,0,110.9,13.18,19.25,9.3
"2009-05-12 01:07:00",878849,2.839,45.63,1.809,0.244,16.46,107.4832,18.43,19.47,40.4,0,110.9,13.18,19.25,7.6
"2009-05-12 01:07:30",878850,3.241,48.45,1.444,0.093,16.49,107.4833,18.43,19.46,41.24,0,110.9,13.18,19.25,10.5
"2009-05-12 01:08:00",878851,3.191,47.75,2.014,0.087,16.4,107.4777,18.42,19.46,41.49,0,110.9,13.19,19.24,9.8
"2009-05-12 01:08:30",878852,3.346,45.52,1.247,0.12,16.34,107.4632,18.38,19.44,41.85,0,110.9,13.19,19.20,7.5
"2009-05-12 01:09:00",878853,3.435,46.03,0.954,0.089,16.38,107.454,18.36,19.43,42.01,0,110.9,13.19,19.18,8.0
"2009-05-12 01:09:30",878854,3.253,48.82,1.38,0.043,16.63,107.4561,18.36,19.43,42.02,0,110.9,13.19,19.18,10.8
"2009-05-12 01:10:00",878855,3.327,48.8,0.941,0.092,16.71,107.4398,18.32,19.4,41.92,0,110.9,13.19,19.14,10.8
"2009-05-12 01:10:30",878856,3.331,49.85,0.712,0.037,16.81,107.4227,18.28,19.37,41.83,0,110.8,13.2,19.09,11.8
"2009-05-12 01:11:00",878857,3.332,51.97,1.422,0.101,16.62,107.4224,18.28,19.35,41.76,0,110.8,13.2,19.09,14.0
"2009-05-12 01:11:30",878858,3.189,52.78,1.391,0.061,16.52,107.4019,18.23,19.34,41.69,0,110.8,13.2,19.04,14.8
"2009-05-12 01:12:00",878859,3.102,53.88,1.427,0.139,16.65,107.3887,18.19,19.32,41.81,0,110.8,13.2,19.01,15.9
"2009-05-12 01:12:30",878860,2.693,53.88,1.324,0.098,16.81,107.3873,18.19,19.28,41.48,0,110.8,13.2,19.00,15.9
"2009-05-12 01:13:00",878861,2.577,53.92,0.748,0.064,16.66,107.3622,18.12,19.26,41.66,0,110.8,13.2,18.94,15.9
"2009-05-12 01:13:30",878862,2.559,52.78,1.122,0.071,16.7,107.3549,18.11,19.23,41.44,0,110.8,13.2,18.92,14.8
"2009-05-12 01:14:00",878863,2.432,52.39,1.327,0.061,16.62,107.3546,18.1,19.2,41.51,0,110.8,13.2,18.92,14.4
"2009-05-12 01:14:30",878864,2.393,54,1.192,0.063,16.55,107.3352,18.05,19.18,41.77,0,110.8,13.2,18.87,16.0
"2009-05-12 01:15:00",878865,2.293,52.74,2.982,0.141,16.7,107.322,18.02,19.16,41.98,0,110.8,13.2,18.84,14.7
"2009-05-12 01:15:30",878866,2.053,55.11,1.907,0.061,16.85,107.3212,18.02,19.15,42.07,0,110.8,13.2,18.83,17.1
"2009-05-12 01:16:00",878867,2.122,55.95,1.679,0.072,16.91,107.3133,18,19.13,42.03,0,110.8,13.2,18.81,18.0
"2009-05-12 01:16:30",878868,2.13,56.57,2.342,0.097,16.87,107.2934,17.95,19.09,41.97,0,110.8,13.2,18.76,18.6
"2009-05-12 01:17:00",878869,1.979,59.09,4.039,0.141,16.94,107.2875,17.93,19.08,42.03,0,110.8,13.2,18.75,21.1
"2009-05-12 01:17:30",878870,1.649,63.95,3.882,0.149,17,107.2875,17.93,19.06,41.77,0,110.8,13.2,18.75,26.0
"2009-05-12 01:18:00",878871,1.417,66.5,2.713,0.103,17.02,107.2796,17.91,19.03,41.32,0,110.8,13.2,18.73,28.5
"2009-05-12 01:18:30",878872,1.633,62.05,2.489,0.057,17.01,107.2664,17.88,19.01,41.25,0,110.8,13.2,18.69,24.0
"2009-05-12 01:19:00",878873,1.673,61.18,2.084,0.064,16.86,107.2573,17.85,19,41.57,0,110.8,13.2,18.67,23.2
"2009-05-12 01:19:30",878874,1.737,56.92,2.586,0.069,16.98,107.2634,17.87,18.99,41.98,0,110.8,13.2,18.68,18.9
"2009-05-12 01:20:00",878875,1.792,52.81,2.087,0.101,17.06,107.2599,17.86,18.97,42.68,0,110.8,13.2,18.68,14.8
"2009-05-12 01:20:30",878876,1.934,51.66,1.775,0.048,16.85,107.2398,17.81,18.94,43.05,0,110.8,13.2,18.62,13.7
"2009-05-12 01:21:00",878877,1.969,50.63,3.471,0.064,16.96,107.2308,17.79,18.93,43.28,0,110.8,13.2,18.60,12.6
"2009-05-12 01:21:30",878878,2.036,47.79,3.368,0.08,16.92,107.2362,17.8,18.91,43.42,0,110.8,13.2,18.61,9.8
"2009-05-12 01:22:00",878879,2.296,45.25,1.239,0.062,17.01,107.226,17.77,18.87,43.67,0,110.8,13.2,18.59,7.2
"2009-05-12 01:22:30",878880,2.438,45.78,0.848,0.05,16.93,107.2143,17.74,18.86,43.97,0,110.8,13.2,18.56,7.8
"2009-05-12 01:23:00",878881,2.48,46.58,0.81,0.045,16.91,107.213,17.74,18.85,44.1,0,110.8,13.2,18.56,8.6
"2009-05-12 01:23:30",878882,2.529,41.63,1.41,0.08,16.78,107.1886,17.68,18.81,44.56,0,110.8,13.2,18.49,3.6
"2009-05-12 01:24:00",878883,2.403,40.08,4.937,0.232,16.8,107.1842,17.67,18.77,44.81,0,110.8,13.2,18.48,2.1
"2009-05-12 01:24:30",878884,2.056,29.81,4.223,0.244,16.79,107.1563,17.6,18.75,45.38,0,110.8,13.21,18.41,351.8
"2009-05-12 01:25:00",878885,2.07,35.44,2.876,0.235,16.83,107.1493,17.58,18.7,45.8,0,110.8,13.21,18.39,357.4
"2009-05-12 01:25:30",878886,2.291,41.11,2.705,0.091,17.05,107.1226,17.51,18.67,45.78,0,110.8,13.21,18.32,3.1
"2009-05-12 01:26:00",878887,2.352,41.17,0.974,0.055,16.95,107.1127,17.48,18.63,45.25,0,110.8,13.21,18.30,3.2
"2009-05-12 01:26:30",878888,2.402,38.77,1.616,0.052,17.01,107.0891,17.42,18.59,45.02,0,110.8,13.21,18.24,0.8
"2009-05-12 01:27:00",878889,2.44,37.73,1.25,0.053,17.08,107.0809,17.4,18.55,45.04,0,110.8,13.21,18.22,359.7
"2009-05-12 01:27:30",878890,2.452,37.04,1.121,0.045,17.14,107.0559,17.34,18.51,45.1,0,110.8,13.21,18.15,359.0
"2009-05-12 01:28:00",878891,2.461,38.51,1.537,0.034,17.12,107.0466,17.31,18.49,45.18,0,110.8,13.21,18.13,0.5
"2009-05-12 01:28:30",878892,2.369,39.67,0.682,0.048,16.89,107.0202,17.25,18.45,45.24,0,110.8,13.21,18.06,1.7
"2009-05-12 01:29:00",878893,2.246,37.89,0.909,0.071,16.88,107.0087,17.22,18.4,45.32,0,110.7,13.22,18.03,359.9
"2009-05-12 01:29:30",878894,2.002,35.95,1.38,0.122,17.06,106.9862,17.16,18.36,45.37,0,110.7,13.22,17.97,358.0
"2009-05-12 01:30:00",878895,1.682,33.72,2.498,0.202,17.12,106.9797,17.14,18.32,45.44,0,110.7,13.22,17.96,355.7
"2009-05-12 01:30:30",878896,1.402,31.59,2.148,0.138,17.04,106.9551,17.08,18.28,45.54,0,110.7,13.22,17.89,353.6
"2009-05-12 01:31:00",878897,1.263,28.96,2.181,0.075,17.06,106.9546,17.08,18.25,45.63,0,110.7,13.22,17.89,351.0
"2009-05-12 01:31:30",878898,1.296,28.8,2.191,0.097,17.02,106.9372,17.03,18.21,45.74,0,110.7,13.22,17.85,350.8
"2009-05-12 01:32:00",878899,1.289,28.51,1.979,0.088,17.08,106.9427,17.05,18.17,45.81,0,110.7,13.22,17.86,350.5
"2009-05-12 01:32:30",878900,1.371,25.6,2.643,0.152,17.07,106.9215,16.99,18.16,45.91,0,110.7,13.22,17.81,347.6
"2009-05-12 01:33:00",878901,1.435,24.99,1.593,0.138,17.05,106.9147,16.98,18.11,46.02,0,110.7,13.22,17.79,347.0
"2009-05-12 01:33:30",878902,1.723,21.19,2.669,0.104,17.01,106.9115,16.97,18.08,46.09,0,110.7,13.22,17.78,343.2
"2009-05-12 01:34:00",878903,1.651,20.76,4.081,0.223,17.03,106.8914,16.92,18.05,46.23,0,110.7,13.22,17.73,342.8
"2009-05-12 01:34:30",878904,1.626,19.91,3.408,0.254,16.95,106.8872,16.91,18.01,46.5,0,110.7,13.22,17.72,341.9
"2009-05-12 01:35:00",878905,1.853,21.96,2.141,0.152,16.97,106.8844,16.9,18,46.71,0,110.7,13.22,17.71,344.0
"2009-05-12 01:35:30",878906,1.784,25.21,2.291,0.144,16.99,106.865,16.85,17.98,46.74,0,110.7,13.23,17.66,347.2
"2009-05-12 01:36:00",878907,1.95,21.44,3.908,0.175,16.97,106.8535,16.82,17.95,46.87,0,110.7,13.22,17.63,343.4
"2009-05-12 01:36:30",878908,2.032,23.44,2.343,0.172,16.97,106.8535,16.82,17.93,47.06,0,110.7,13.22,17.63,345.4
"2009-05-12 01:37:00",878909,2.2,19.96,3.226,0.147,17.02,106.8453,16.8,17.91,47.13,0,110.7,13.22,17.61,342.0
"2009-05-12 01:37:30",878910,2.262,22.09,3.133,0.208,17.02,106.8236,16.74,17.89,47.21,0,110.7,13.22,17.55,344.1
"2009-05-12 01:38:00",878911,2.05,18.47,5.813,0.408,17.03,106.8197,16.73,17.87,47.26,0,110.7,13.22,17.54,340.5
"2009-05-12 01:38:30",878912,2.435,22.12,2.148,0.131,17.05,106.8194,16.73,17.85,47.25,0,110.7,13.22,17.54,344.1
"2009-05-12 01:39:00",878913,2.333,20.44,4.293,0.33,17.04,106.8121,16.71,17.82,47.32,0,110.7,13.22,17.52,342.4
"2009-05-12 01:39:30",878914,2.068,16.6,3.987,0.35,17.04,106.79,16.66,17.81,47.54,0,110.7,13.22,17.47,338.6
"2009-05-12 01:40:00",878915,2.295,18.57,1.535,0.183,17.07,106.789,16.65,17.79,47.67,0,110.7,13.23,17.46,340.6
"2009-05-12 01:40:30",878916,1.955,15.6,4.469,0.369,17.08,106.7926,16.66,17.77,47.62,0,110.6,13.23,17.47,337.6
"2009-05-12 01:41:00",878917,1.753,14.44,3.795,0.259,17.09,106.774,16.62,17.75,47.61,0,110.6,13.23,17.43,336.4
"2009-05-12 01:41:30",878918,1.571,12.41,4.498,0.257,17.07,106.7615,16.58,17.73,47.66,0,110.6,13.23,17.39,334.4
"2009-05-12 01:42:00",878919,1.383,11.52,6.256,0.366,17.08,106.7621,16.59,17.7,47.67,0,110.6,13.24,17.40,333.5
"2009-05-12 01:42:30",878920,1.344,11.29,4.73,0.323,17.1,106.7673,16.6,17.68,47.69,0,110.6,13.24,17.41,333.3
"2009-05-12 01:43:00",878921,1.204,9.31,6.929,0.204,17.1,106.7454,16.54,17.65,47.65,0,110.6,13.24,17.35,331.3
"2009-05-12 01:43:30",878922,1.321,9.21,4.465,0.183,17.12,106.7443,16.54,17.64,47.71,0,110.6,13.24,17.35,331.2
"2009-05-12 01:44:00",878923,1.087,8.18,5.353,0.159,17.11,106.7482,16.55,17.63,47.74,0,110.6,13.24,17.36,330.2
"2009-05-12 01:44:30",878924,1.174,10.25,4.581,0.178,17.12,106.7323,16.51,17.61,47.76,0,110.6,13.24,17.32,332.2
"2009-05-12 01:45:00",878925,1.192,9.36,5.299,0.166,17.13,106.7213,16.48,17.59,47.71,0,110.6,13.24,17.29,331.4
"2009-05-12 01:45:30",878926,1.264,10,4.363,0.183,17.13,106.7204,16.48,17.57,47.71,0,110.6,13.24,17.29,332.0
"2009-05-12 01:46:00",878927,1.334,11.53,4.197,0.205,17.13,106.7187,16.47,17.55,47.73,0,110.6,13.24,17.28,333.5
"2009-05-12 01:46:30",878928,1.464,12.11,3.543,0.197,17.12,106.6954,16.41,17.52,47.79,0,110.6,13.24,17.22,334.1
"2009-05-12 01:47:00",878929,1.365,6.491,3.944,0.171,17.14,106.6869,16.39,17.51,47.85,0,110.6,13.25,17.20,328.5
"2009-05-12 01:47:30",878930,1.684,4.751,3.156,0.208,17.12,106.6869,16.39,17.49,47.87,0,110.6,13.25,17.20,326.8
"2009-05-12 01:48:00",878931,1.608,0.328,2.429,0.159,17.13,106.6847,16.39,17.48,47.9,0,110.6,13.25,17.20,322.3
"2009-05-12 01:48:30",878932,1.529,359,3.208,0.139,17.16,106.6641,16.33,17.45,47.89,0,110.6,13.25,17.14,321.0